This is the latest recevied weather packets stored in our database for station/object KC3WWU. If no packets are shown the sender has not sent any weather packets the latest 10 day(s).
| Time | Temp. | Humidity | Pressure | Rain* | Wind** | Luminosity | Snow |
|---|---|---|---|---|---|---|---|
| 1777120715 | 12.78° C | 96% | 1007 hPa | 0 mm | - | 35 W/m² | - |
| 1777120411 | 12.78° C | 96% | 1006.6 hPa | 0 mm | - | 20 W/m² | - |
| 1777120106 | 12.78° C | 95% | 1006.6 hPa | 0 mm | - | 62 W/m² | - |
| 1777119801 | 12.78° C | 95% | 1006.6 hPa | 0 mm | - | 56 W/m² | - |
| 1777119498 | 12.78° C | 96% | 1006.7 hPa | 0 mm | - | 69 W/m² | - |
| 1777119194 | 12.78° C | 96% | 1006.7 hPa | 0 mm | - | 76 W/m² | - |
| 1777118889 | 12.78° C | 96% | 1006.6 hPa | 0 mm | - | 69 W/m² | - |
| 1777118585 | 12.78° C | 96% | 1006.4 hPa | 0 mm | - | 60 W/m² | - |
| 1777118285 | 12.78° C | 96% | 1006.4 hPa | 0 mm | - | 58 W/m² | - |
| 1777117982 | 12.78° C | 97% | 1006.8 hPa | 0 mm | - | 56 W/m² | - |
| 1777117679 | 12.22° C | 98% | 1006.7 hPa | 0 mm | - | 53 W/m² | - |
| 1777117377 | 12.22° C | 98% | 1006.4 hPa | 0 mm | - | 48 W/m² | - |
| 1777117072 | 12.22° C | 99% | 1006.7 hPa | 0 mm | - | 45 W/m² | - |
| 1777116767 | 12.22° C | 99% | 1006.6 hPa | 0 mm | - | 39 W/m² | - |
| 1777116463 | 11.67° C | 99% | 1006.6 hPa | 0 mm | - | 35 W/m² | - |
| 1777116160 | 11.67° C | 99% | 1006.7 hPa | 0 mm | - | 34 W/m² | - |
| 1777115859 | 11.67° C | 99% | 1006.6 hPa | 0 mm | - | 33 W/m² | - |
| 1777115555 | 11.67° C | 99% | 1006.6 hPa | 0 mm | - | 31 W/m² | - |
| 1777115252 | 11.67° C | 99% | 1006.3 hPa | 0 mm | - | 25 W/m² | - |
| 1777114949 | 11.11° C | 99% | 1006.2 hPa | 0 mm | - | 19 W/m² | - |
| 1777114646 | 10.56° C | 99% | 1006.1 hPa | 0 mm | - | 16 W/m² | - |
| 1777114346 | 10.56° C | 99% | 1006.1 hPa | 0 mm | - | 14 W/m² | - |
| 1777114042 | 10.56° C | 99% | 1006.3 hPa | 0 mm | - | 11 W/m² | - |
* Rain latest hour (hover to see other rain measurements)
** Current wind speed in m/s (hover to see current wind gust speed)